Printer-friendly version

IAU Minor Planet Center

Minor Planet Center

MPEC 2004-G13 : 2004 GA

The following Minor Planet Electronic Circular may be linked-to from your own Web pages, but must not otherwise be redistributed electronically.


Read MPEC 2004-G12 Read MPEC 2004-G14


M.P.E.C. 2004-G13                                Issued 2004 Apr. 7, 23:08 UT

     The Minor Planet Electronic Circulars contain information on unusual
         minor planets and routine data on comets.  They are published
   on behalf of Commission 20 of the International Astronomical Union by the
          Minor Planet Center, Smithsonian Astrophysical Observatory,
                          Cambridge, MA 02138, U.S.A.

         Supported in part by the Steven and Michele Kirsch Foundation
             Prepared using the Tamkin Foundation Computer Network

                              MPC@CFA.HARVARD.EDU
          URL http://cfa-www.harvard.edu/iau/mpc.html  ISSN 1523-6714

                                    2004 GA

Observations:
     K04G00A* C2004 04 07.46902 10 09 41.63 +06 39 34.9          17.3   EG013608
     K04G00A  C2004 04 07.47977 10 09 47.82 +06 37 17.6          17.2   EG013608
     K04G00A  C2004 04 07.49077 10 09 54.17 +06 34 57.4          17.3   EG013608
     K04G00A  C2004 04 07.78752 10 12 56.64 +05 31 45.3          16.3 V EG013118
     K04G00A  C2004 04 07.78826 10 12 57.05 +05 31 36.0          16.8 V EG013118
     K04G00A  C2004 04 07.78902 10 12 57.51 +05 31 26.1          16.4 V EG013118
     K04G00A  C2004 04 07.78977 10 12 57.90 +05 31 17.2          16.2 V EG013118
     K04G00A  C2004 04 07.79052 10 12 58.34 +05 31 07.5          16.4 V EG013118
     K04G00A  C2004 04 07.81638 10 13 14.75 +05 25 51.3          16.0 R EG013J87
     K04G00A  C2004 04 07.81664 10 13 14.89 +05 25 48.1          16.4 R EG013J87
     K04G00A  C2004 04 07.81691 10 13 15.03 +05 25 43.9          16.3 R EG013J87
     K04G00A  C2004 04 07.81719 10 13 15.14 +05 25 41.3          16.3 R EG013J87
     K04G00A  C2004 04 07.83296 10 13 22.38 +05 22 13.0          16.0 R EG013046
     K04G00A  C2004 04 07.83469 10 13 23.36 +05 21 51.0                 EG013046
     K04G00A  C2004 04 07.83718 10 13 24.79 +05 21 19.8                 EG013046
     K04G00A  C2004 04 07.84477 10 13 29.01 +05 19 44.2          15.9 R EG013046
     K04G00A  C2004 04 07.85426 10 13 35.47 +05 17 40.9          16.6 R EG013J95
     K04G00A  C2004 04 07.85720 10 13 36.91 +05 17 19.2          16.6 R EG013620
     K04G00A  C2004 04 07.85789 10 13 37.51 +05 16 55.2          16.6 R EG013J95
     K04G00A  C2004 04 07.85966 10 13 38.26 +05 16 48.8          16.6 R EG013620
     K04G00A  C2004 04 07.86016 10 13 38.78 +05 16 26.7          16.6 R EG013J95
     K04G00A  C2004 04 07.86172 10 13 39.38 +05 16 23.2          16.7 R EG013620

Observer details:
046 Klet.  Observer M. Kocer.  0.57-m f/5.2 reflector + CCD.
118 Modra.  Observers A. Galad, S. Gajdos.  0.6-m f/5.5 reflector + CCD.
608 Haleakala-NEAT/MSSS.  Observers S. Pravdo, M. Hicks, K. Lawrence,
    D. MacDonald, P. Kervin, J. Africano, R. Maeda.  1.2-m reflector + CCD.
620 Observatorio Astronomico de Mallorca.  Observers S. Sanchez, R. Stoss,
    J. Nomen.  0.30-m f/9 Schmidt-Cassegrain + CCD.
J87 La Canada.  Observer J. Lacruz.  0.30-m f/3.3 Schmidt-Cassegrain + CCD.
J95 Great Shefford.  Observer P. Birtwhistle.  0.30-m f/6.3 Schmidt-Cassegrain
    + CCD.

Orbital elements:
2004 GA
Epoch 2004 Apr. 5.0 TT = JDT 2453100.5                  MPC
M   4.10764              (2000.0)            P               Q
n   0.20605170     Peri.  155.34290     -0.97609882     -0.21359105
a   2.8389119      Node    12.52374     +0.15568466     -0.81603747
e   0.6403306      Incl.   10.66332     +0.15163570     -0.53708631
P   4.78           H   20.2           G   0.15
From 22 observations 2004 Apr. 7-7.

Ephemeris:
2004 GA                  a,e,i = 2.84, 0.64, 11                  q = 1.0211
Date    TT    R. A. (2000) Decl.     Delta      r     Elong.  Phase     V
2004 04 05    09 44.20   +15 32.3    0.088    1.056   127.6    48.6    16.9
2004 04 15    11 14.04   -15 22.4    0.113    1.098   145.5    31.2    17.0
2004 04 25    12 11.22   -29 41.8    0.169    1.153   147.7    27.8    17.9
2004 05 05    12 48.40   -35 09.7    0.240    1.217   147.1    26.8    18.7
2004 05 15    13 15.02   -37 06.8    0.322    1.290   145.7    26.2    19.5
2004 05 25    13 36.41   -37 33.6    0.414    1.367   143.3    26.3    20.2
2004 06 04    13 55.31   -37 21.9    0.517    1.448   139.9    26.8    20.8
2004 06 14    14 13.03   -36 55.0    0.631    1.532   135.7    27.6    21.4
2004 06 24    14 30.29   -36 24.5    0.757    1.617   130.9    28.4    21.9

Timothy B. Spahr             (C) Copyright 2004 MPC           M.P.E.C. 2004-G13

Read MPEC 2004-G12 Read MPEC 2004-G14


Our Web policy. Index to the CBAT/MPC/ICQ pages.


Valid HTML 4.01!